BREEZE-M DEB (TANK), 44627

Orbit data source: Space-Track

BREEZE-M DEB (TANK), 44627 is space debris in HEO originally from a launch on Wed, 09 Oct 2019 UTC launched from the Tyuratam Missile And Space Complex (TTMTR). Debris objects in space refer to the collection of defunct objects orbiting the Earth. Examples of debris include non-operational satellites, rocket bodies, and fragments generated from explosions, collisions, or faulty payload assembly.

Loading next visibility...
BREEZE-M DEB (TANK) details
Identifier
44627, 2019-067D
Orbit
HEO
Last TLE update9 hours ago
Origin
Flag of CISKhrunichev (CIS)
ManufacturerKhrunichev
MissionSpacecraft
Bus & MotorBRIZ TANK, Unknown motor
Mass~1,000 kg wet, 1,000 kg dry
Launch date (UTC)
2019-10-09 (5 years ago)
Launch vehicleUnknown
Launch site
Tyuratam Missile And Space Complex (TTMTR)
Object type
Payload
Rocket body
Debris
Shape & HBRTorus, Unknown HBR
Radar Cross Section8.218 m², Large (>1 m²)

Expand to show TLE details & history

TLE from 9 hours ago
0 BREEZE-M DEB (TANK)
1 44627U 19067D   24361.26959106  .00002352  00000-0  86641-3 0  9990
2 44627  50.3830 175.5577 5784499 330.1891   6.7117  4.32028641 80596
Epoch: 2024-12-26T06:28Z
Definitive object data (Epoch: 2024-12-26T06:28:12.667Z)
Latitude-0.00002°
Longitude-16.73333°
Altitude682.047 km
Speed9.375 km/s
True Right ascension11h 42m 17s
True Declination0° 00' 00"
Sunlit
Object was in daylight at TLE epoch
Visualization TLE readout
Latitude1.73129°
Longitude161.60526°
Altitude15,412.694 km
Speed3.4 km/s
Apparent Right ascension00h 12m 31s
Apparent Declination-7° 47' 44"
Sunlit
Object is in daylight
Visualization observer readout
Local Sidereal Time15:14:20
Azimuth64.161° ENE
Elevation-38.323°
Doppler factor1
Orbital elements
Apogee altitude18,758.46 km
Perigee altitude334.99 km
Semi-major axis15,924.862 km
Eccentricity0.5784499
Inclination50.383°
RAAN175.5577°
Arg. of periapsis330.1891°
True anomaly29.79335°
Mean anomaly6.7117°
Eccentric anomaly15.65518°
Mean motion1.08001 °/min
BSTAR0.00086641
Orbital period333.33 mins
Loading maneuver chart data...
Loading historical data...
Loading historical data...
Loading historical data...
Loading historical data...
Loading historical data...
Loading historical data...
Loading historical data...
Other satellites on launch #67 in the year 2019 (2019-10-09 UTC)

BREEZE-M DEB (TANK) Visibility forecast

Observer location: undefined°, undefined

Span
Click to sort rows by Start time (UTC) header in descending order
Start Az.
Max El. time (UTC)
Max El. Az.
Max El.
End time (UTC)
End Az.
236 mins2024-12-26 17:49:16.136Z278.597° WNW2024-12-26 18:16:16.136Z8.08° NNE43.533°2024-12-26 21:45:16.136Z128.723° SE
211 mins2024-12-26 23:51:16.136Z309.238° NW2024-12-27 01:07:16.136Z272.919° WNW33.949°2024-12-27 03:22:16.136Z226.786° WSW
|